Regional Weather Roundup
Issued by NWS

Home | Current Version | Previous Version | Graphics & Text | Print | Product List | Glossary On
Versions: 1 2 3 4 5 6 7 8 9 10 11 12 13 14 15 16 17 18 19 20 21 22 23 24 25 26 27 28 29 30 31 32 33 34 35 36 37 38 39 40 41 42 43 44 45 46 47 48 49 50
000
ASUS43 KOAX 130402
RWRNE

WEATHER ROUNDUP FOR NEBRASKA
NATIONAL WEATHER SERVICE OMAHA NE
1000 PM CST FRI FEB 12 2016

NOTES: SATELLITE DATA IS BEING USED TO AUGMENT CLOUD COVER ABOVE
       12000 FEET.
       "FAIR" INDICATES FEW OR NO CLOUDS BELOW 12,000 FEET WITH NO
       SIGNIFICANT WEATHER AND/OR OBSTRUCTIONS TO VISIBILITY.

  * THESE STATIONS DO NOT REPORT WEATHER SUCH AS RAIN...SNOW OR FOG.

NEZ001>004-019>022-054>056-130500-
NEBRASKA PANHANDLE

CITY           SKY/WX    TMP DP  RH WIND       PRES   REMARKS
SCOTTSBLUFF    CLOUDY    32  30  92 SE13      30.27F WCI  22
ALLIANCE       CLOUDY    31  29  92 S17G23    30.29S WCI  19
CHADRON        CLOUDY    31  27  85 S3        30.28F
KIMBALL        SNOW      30  30 100 S16       30.27S VSB 1/4 WCI  18
SIDNEY         FOG       29  29 100 S16       30.30F VSB 1/4 WCI  17
$$

NEZ057>060-069>072-079>082-130500-
SOUTHWEST NEBRASKA

CITY           SKY/WX    TMP DP  RH WIND       PRES   REMARKS
NORTH PLATTE   CLOUDY    26  23  88 SE13      30.42S WCI  15
IMPERIAL       CLOUDY    30  29  96 SE16      30.38F WCI  19
LEXINGTON      CLOUDY    25  18  75 E10       30.48S WCI  15
MCCOOK         FOG       27  26  96 E12       30.44S VSB 1/4 WCI  17
$$

NEZ005>010-023>029-035>040-094-130500-
NORTH CENTRAL NEBRASKA

CITY           SKY/WX    TMP DP  RH WIND       PRES   REMARKS
VALENTINE      CLOUDY    22  15  75 SE12      30.44S WCI  10
AINSWORTH      CLOUDY    20  14  76 SE12      30.45S WCI   8
BROKEN BOW     CLOUDY    21  17  84 E12       30.46F WCI   9
ORD            CLOUDY    19  11  70 E8        30.52S WCI   9
$$

NEZ041-046>049-061>064-073>077-083>087-130500-
SOUTH CENTRAL NEBRASKA

CITY           SKY/WX    TMP DP  RH WIND       PRES   REMARKS
GRAND ISLAND   CLOUDY    18  10  71 E10       30.56S WCI   6
AURORA         CLOUDY    18  11  71 E8        30.56S WCI   8
HASTINGS       CLOUDY    20  11  68 E9        30.54R WCI   9
HEBRON         CLOUDY    22  15  75 NE9       30.59R WCI  11
KEARNEY *      CLOUDY    21  16  79 E13       30.51F WCI   9
YORK           CLOUDY    18  10  73 NE9       30.58S WCI   6
$$

NEZ011>018-030>034-042>045-130500-
NORTHEAST NEBRASKA

CITY           SKY/WX    TMP DP  RH WIND       PRES   REMARKS
NORFOLK        CLOUDY    14   3  61 NE5       30.58F WCI   6
BLAIR          PTCLDY    12   4  71 N9        30.62R WCI   0
COLUMBUS *     MOCLDY    16   1  53 N7        30.59F WCI   6
FREMONT        PTCLDY    13   3  64 N7        30.63S WCI   3
TEKAMAH        CLOUDY    10   0  63 N9        30.66S WCI  -3
$$

NEZ050>053-065>068-078-088>093-130500-
SOUTHEAST NEBRASKA

CITY           SKY/WX    TMP DP  RH WIND       PRES   REMARKS
LINCOLN        CLOUDY    16   5  62 N16       30.64S WCI   1
OMAHA EPPLEY   MOCLDY    14   3  61 N10       30.66R WCI   1
BEATRICE       CLOUDY    19  11  73 NE13      30.61R WCI   5
FALLS CITY     CLOUDY    18   4  54 N12       30.63R WCI   5
NEBRASKA CITY  CLOUDY    17   4  58 NE12      30.62S WCI   4
PLATTSMOUTH    CLOUDY    15   3  60 N9        30.62S WCI   3
$$

NEZ044-045-051>053-067-130500-
OMAHA AREA

CITY           SKY/WX    TMP DP  RH WIND       PRES   REMARKS
OMAHA EPPLEY   MOCLDY    14   3  61 N10       30.66R WCI   1
BLAIR          PTCLDY    12   4  71 N9        30.62R WCI   0
FREMONT        PTCLDY    13   3  64 N7        30.63S WCI   3
OFFUTT AFB     CLOUDY    14   0  53 N8        30.64R WCI   3
PLATTSMOUTH    CLOUDY    15   3  60 N9        30.62S WCI   3
WAHOO          CLOUDY    14   5  67 N8        30.63S WCI   3
$$




USA.gov is the U.S. government's official web portal to all federal, state and local government web resources and services.